www.pogodaiklimat.ru

Погода и климат >> Архив погоды >> Нигер >> Tillabery


ПОГОДА в Tillabery

  • Прогноз погоды в Tillabery
  • Монитор погоды в Tillabery
  • Климат города

АРХИВ ПОГОДЫ в Tillabery

Время (UTC), дата Ветер
(напр.,м/с)
 
Видим.   Явления Облачность Т
(С)
Тd
(С)
f
(%)
Тe
(С)
Тes
(С)
Комфортность P
(гПа)
Po
(гПа)
Тmin
(С)
Tmax
(С)
R
(мм)
R24
(мм)
S
(см)
18 16.06 З 4 10 км 9/0
[Cs]
+36.4 +17.6 33 +40 +40 очень
душно
1007.1 984.2 +38.0
21 16.06 штиль 0 10 км 9/0
[Cs]
+33.7 +19.2 42 +39 +39 очень
душно
1007.9 984.9
03 17.06 ЮЗ 2 10 км 9/0
[Cs]
+30.2 +21.9 61 +39 +39 очень
душно
1008.5 985.5
06 17.06 Ю 8 10 км 9/0
[Ac trans Cs]
+28.2 +20.0 61 +34 +34 очень
душно
1011.8 988.6 +28.2
09 17.06 З 14 10 км 9/0
[Ac As Ci sp]
+30.4 +21.5 59 +38 +38 очень
душно
1011.1 987.9
12 17.06 З 14 10 км 9/0
[Cs]
+36.0 +20.7 41 +43 +43 опасность
перегрева
1010.3 987.2
15 17.06 З 8 10 км 10/0
[Ac As]
+38.2 +17.0 29 +41 +41 опасность
перегрева
1009.8 986.8
18 17.06 СЗ 6 10 км 10/0
[Ac As]
+36.3 +18.4 35 +40 +40 очень
душно
1009.2 986.0 +39.0
21 17.06 штиль 0 10 км 9/0
[Cs]
+33.5 +21.7 50 +42 +42 опасность
перегрева
1010.5 987.3
03 18.06 ЮЗ 4 10 км 6/0
[Ci sp]
+31.2 +18.8 48 +36 +36 очень
душно
1009.8 986.8
06 18.06 ЮЗ 6 10 км 6/0
[Ci sp]
+30.0 +20.4 56 +37 +37 очень
душно
1010.7 987.6 +30.0
09 18.06 З 6 10 км 9/0
[Ac trans Cs]
+34.0 +19.6 43 +40 +44 очень
душно
1010.6 987.5
12 18.06 СЗ 6 10 км в посл. час гроза {дождь} 9/0
[Ac As]
+28.2 +22.1 70 +37 +40 очень
душно
1010.2 986.9 3
15 18.06 штиль 0 10 км 9/0
[Cs]
+32.0 +21.7 55 +41 +53 опасность
перегрева
1007.6 984.5
18 18.06 ЮЗ 4 10 км 9/0
[Cs]
+34.2 +20.8 46 +41 +41 опасность
перегрева
1006.8 983.7 +35.5 3
03 19.06 штиль 0 10 км 9/0
[Cs]
+30.0 +19.4 53 +36 +36 очень
душно
1007.8 984.6
06 19.06 штиль 0 10 км 9/0
[Cs]
+28.0 +19.2 59 +34 +34 очень
душно
1008.3 985.1 +28.0 3
09 19.06 ЮЗ 10 10 км 6/0
[Ci sp]
+33.4 +20.9 48 +41 +41 опасность
перегрева
1008.8 985.7
12 19.06 З 8 10 км 6/0
[Ci sp]
+37.8 +19.8 35 +43 +46 опасность
перегрева
1008.6 985.6
15 19.06 СЗ 6 10 км 10/0
[As trans]
+40.0 +16.5 25 +42 +44 опасность
перегрева
1005.9 983.0
18 19.06 З 4 10 км 9/0
[Cs]
+38.5 +16.3 27 +40 +41 очень
душно
1005.9 982.7 +40.4
03 20.06 ЮЗ 14 10 км 9/0
[Cs]
+31.5 +21.7 56 +40 +40 очень
душно
1006.5 983.7
06 20.06 ЮЗ 14 10 км 9/0
[As trans Ci sp]
+30.0 +22.5 64 +39 +39 очень
душно
1007.3 984.3 +29.6
09 20.06 ЮЗ 12 10 км 10/0
[Cs]
+31.8 +22.4 58 +41 +41 опасность
перегрева
1008.8 985.8
12 20.06 ЮЗ 6 10 км 9/3 1200 м
[Cu hum Cs]
+35.0 +22.1 47 +44 +49 опасность
перегрева
1008.2 985.3
15 20.06 ЮЗ 8 10 км 9/6 1200 м
[Cu med, cong Ac trans Ci sp]
+36.5 +21.5 42 +44 +45 опасность
перегрева
1007.9 984.4
18 20.06 штиль 0 10 км 9/0
[Cs]
+33.5 +21.2 49 +41 +41 опасность
перегрева
1007.8 984.1 +37.2
21 20.06 Ю 6 10 км 6/0
[Ci sp]
+31.4 +20.5 52 +38 +38 очень
душно
1008.6 985.4
03 21.06 штиль 0 10 км 6/0
[Ci sp]
+28.6 +21.1 64 +36 +36 очень
душно
1008.4 985.3
06 21.06 штиль 0 15 км 6/0
[Ci sp]
+27.2 +21.0 69 +34 +35 очень
душно
1009.6 986.3 +27.2
09 21.06 ЮЗ 10 10 км 6/0
[Ci sp]
+30.8 +20.8 55 +38 +38 очень
душно
1011.1 987.8
12 21.06 ЮЗ 6 10 км 9/0
[Ac trans Ci sp]
+35.8 +21.4 43 +43 +50 опасность
перегрева
1010.6 987.5
15 21.06 ЮЗ 4 10 км 9/1 1200 м
[Cu med, cong Cs]
+38.0 +20.6 37 +44 +50 опасность
перегрева
1008.4 985.3
18 21.06 штиль 0 10 км 8/1 1200 м
[Cu hum Ac trans Ci sp]
+36.5 +21.4 42 +44 +44 опасность
перегрева
1008.0 984.9 +37.8
21 21.06 Ю 10 10 км 6/0
[Ci sp]
+34.0 +20.9 46 +41 +41 опасность
перегрева
1009.9 986.7
03 22.06 Ю 10 10 км 6/0
[Ci sp]
+29.0 +23.3 71 +39 +39 очень
душно
1009.6 986.6
06 22.06 Ю 6 10 км 9/0
[Ac trans Cs]
+28.3 +22.5 71 +37 +37 очень
душно
1010.5 987.3 +28.3
09 22.06 В 4 15 км 6/0
[Ci sp]
+31.0 +21.2 56 1011.8 987.9
12 22.06 Ю 4 15 км 9/3 1200 м
[Cu hum Cs]
+34.5 +21.4 47 +42 +51 опасность
перегрева
1010.6 987.5
15 22.06 ЮЗ 6 15 км 9/0
[Cs]
+37.2 +20.1 37 +43 +47 опасность
перегрева
1008.6 985.5
18 22.06 штиль 0 10 км 9/0
[Cs]
+36.0 +19.8 39 +42 +42 опасность
перегрева
1008.7 985.5 +38.0
21 22.06 штиль 0 10 км 9/0
[Ac As Ci sp]
+34.0 +21.7 49 +42 +42 опасность
перегрева
1009.1 986.0
03 23.06 ЮЗ 10 10 км 9/0
[Cs]
+31.5 +20.4 52 +38 +38 очень
душно
1008.8 985.9
06 23.06 ЮЗ 4 10 км 9/0
[Ac trans Ci sp]
+30.8 +20.8 55 +38 +38 очень
душно
1009.5 986.5 +30.8
09 23.06 ЮЗ 14 10 км 9/0
[Ac trans Ci sp]
+32.7 +20.2 48 +39 +39 очень
душно
1011.7 988.5
12 23.06 З 6 10 км 9/1 1200 м
[Cu hum Ac trans Cs]
+35.0 +20.5 43 +42 +46 опасность
перегрева
1010.4 987.3
15 23.06 штиль 0 10 км 9/9 1200 м
[Cu med, cong Ac As Ci sp]
+37.5 +20.5 37 +43 +45 опасность
перегрева
1007.7 984.8

 

Местоположение метеостанции Tillabery (Нигер): широта 14.20 долгота 1.45 высота над уровнем моря 210 м.

В архиве по умолчанию представлена погода в Tillabery за последнюю неделю. Архивные данные за месяц целиком и за предыдущие месяцы, начиная с января 2011 года, Вы можете получить, выбрав интересующий диапазон дат из раскрывающегося списка и нажав кнопку "Ввод!".


*Определитесь, кто Вы:
робот инопланетянин человек

Внимание! Время в таблицах - всемирное. Для получения местного времени необходимо прибавить поправку, которая в Tillabery равна 1 ч.

Смотрите также архив погоды в соседних городах и на ближайших метеорологических станциях:

Погода в Niamey (Нигер) (112 км)
Погода в Dori (Буркина-Фасо) (161 км)
Погода в Dosso (Нигер) (231 км)
Погода в Fada N`Gourma (Буркина-Фасо) (268 км)
Погода в Gaya (Нигер) (337 км)
Погода в Kandi (Бенин) (377 км)
Погода в Ouagadougou (Буркина-Фасо) (382 км)
Погода в Dapaon (Того) (389 км)
Погода в Birni-Nkonni (Нигер) (413 км)
Погода в Tahoua (Нигер) (416 км)

Пояснения к столбцам:

Ветер - указаны скорость ветра в м/с - средняя за 10 мин, порывы в срок и между сроками (в фигурных скобках) и направление, откуда дует ветер: С - северный, СВ - северо-восточный, В - восточный, ЮВ - юго-восточный, Ю - южный, ЮЗ - юго-западный, З - западный, СЗ - северо-западный.
Видимость - горизонтальная дальность видимости в метрах или километрах. При видимости от 1 до 10 км при отсутствии осадков обычно наблюдается дымка, при ухудшении видимости до 1 км и менее - туман. В сухую погоду видимость может ухудшаться дымом, пылью или мглою.
Явления - указаны атмосферные явления, наблюдавшиеся в срок или в последний час перед сроком; фигурными скобками обозначены явления, наблюдавшиеся между сроками (за 1-3 часа до срока); квадратными скобками обозначены град или гололедные отложения с указанием их диаметра в мм.
Облачность - указаны через наклонную черту общая и нижняя облачность в баллах и высота нижней границы облаков в метрах; квадратными скобками обозначены формы облаков: Ci - перистые, Cs - перисто-слоистые, Cc - перисто-кучевые, Ac - высококучевые, As - высокослоистые, Sc - слоисто-кучевые, Ns - слоисто-дождевые, Cu - кучевые, Cb - кучево-дождевые. Подробнее классификацию облаков см. в Атласе облаков (PDF).
T - Температура воздуха - температура, измеренная на высоте 2 м над землей.
Td - Температура точки росы - температура, при понижении до которой содержащийся в воздухе водяной пар достигнет насыщения.
f - Относительная влажность воздуха - влажноcть воздуха, измеренная на высоте 2 м над землей.
Te - Эффективная температура - температура, которую ощущает одетый по сезону человек в тени. Характеристика душности погоды. При расчете учитывается влияние влажности воздуха и скорости ветра на теплоощущения человека.
Tes - Эффективная температура на солнце - температура, которую ощущает человек, с поправкой на солнечный нагрев. Характеристика знойности погоды. Зависит от высоты солнца над горизонтом, облачности и скорости ветра. Ночью, в пасмурную погоду, а также при ветре 12 м/с и более поправка равна нулю.
P - Атмосферное давление - приведенное к уровню моря атмосферное давление.
Po - Атмосферное давление - измеренное на уровне метеостанции атмосферное давление.
Tmin - Минимальная температура - минимум температуры воздуха на высоте 2 м над землей.
Tmax - Максимальная температура - максимум температуры воздуха на высоте 2 м над землей.
R - Количество осадков - Количество выпавших осадков за период времени, мм. При наведении курсора мыши на число - период времени, за который выпало указанное количество осадков.
R24 - Количество осадков - Количество выпавших осадков за 24 часа, мм.
S - Снежный покров - Высота снежного покрова, см. При наведении курсора мыши на число - состояние снежного покрова и степень покрытия местности в баллах.